EN

Hourly Weather Lahodyntsi

Today, 4 August, Wednesday

Time Temperature Precipitation Wind Pressure Humidity
00:00 +16°C° 0 mm 1 mps 736 mmHg 67%
01:00 +16°C° 0 mm 1 mps 736 mmHg 68%
02:00 +15°C° 0 mm 1 mps 736 mmHg 69%
03:00 +15°C° 0 mm 1 mps 736 mmHg 71%
04:00 +15°C° 0 mm 2 mps 736 mmHg 73%
05:00 +15°C° 0 mm 2 mps 736 mmHg 75%
06:00 +16°C° 0.1 mm 2 mps 736 mmHg 71%
07:00 +18°C° 0.1 mm 2 mps 736 mmHg 68%
08:00 +20°C° 0.1 mm 3 mps 737 mmHg 64%
09:00 +21°C° 0 mm 3 mps 737 mmHg 59%
10:00 +23°C° 0 mm 4 mps 736 mmHg 54%
11:00 +26°C° 0 mm 4 mps 736 mmHg 49%
12:00 +26°C° 0 mm 4 mps 736 mmHg 47%
13:00 +27°C° 0 mm 4 mps 736 mmHg 44%
14:00 +28°C° 0 mm 4 mps 735 mmHg 42%
15:00 +28°C° 0 mm 4 mps 735 mmHg 42%
16:00 +28°C° 0 mm 4 mps 735 mmHg 43%
17:00 +27°C° 0 mm 3 mps 734 mmHg 43%
18:00 +26°C° 0 mm 3 mps 734 mmHg 50%
19:00 +24°C° 0 mm 3 mps 734 mmHg 57%
20:00 +21°C° 0 mm 2 mps 734 mmHg 64%
21:00 +20°C° 0.6 mm 2 mps 734 mmHg 72%
22:00 +19°C° 0.6 mm 2 mps 734 mmHg 79%
23:00 +18°C° 0.6 mm 2 mps 734 mmHg 86%

Tomorrow, 5 August, Thursday

Time Temperature Precipitation Wind Pressure Humidity
00:00 +18°C° 0.7 mm 2 mps 734 mmHg 88%
01:00 +18°C° 0.7 mm 2 mps 733 mmHg 90%
02:00 +18°C° 0.7 mm 3 mps 733 mmHg 92%
03:00 +18°C° 0.1 mm 3 mps 733 mmHg 92%
04:00 +18°C° 0.1 mm 3 mps 732 mmHg 93%
05:00 +18°C° 0.1 mm 3 mps 732 mmHg 93%
06:00 +19°C° 0.1 mm 3 mps 732 mmHg 93%
07:00 +19°C° 0.1 mm 3 mps 732 mmHg 92%
08:00 +20°C° 0.1 mm 3 mps 732 mmHg 91%
09:00 +21°C° 0.2 mm 3 mps 732 mmHg 85%
10:00 +22°C° 0.2 mm 3 mps 732 mmHg 79%
11:00 +25°C° 0.2 mm 3 mps 731 mmHg 73%
12:00 +26°C° 0 mm 3 mps 731 mmHg 64%
13:00 +28°C° 0 mm 3 mps 731 mmHg 55%
14:00 +30°C° 0 mm 3 mps 731 mmHg 46%
15:00 +30°C° 0 mm 3 mps 730 mmHg 47%
16:00 +30°C° 0 mm 3 mps 729 mmHg 47%
17:00 +30°C° 0 mm 3 mps 729 mmHg 48%
18:00 +27°C° 5 mm 3 mps 729 mmHg 63%
19:00 +23°C° 5 mm 4 mps 728 mmHg 79%
20:00 +20°C° 5 mm 4 mps 728 mmHg 94%
21:00 +20°C° 1.6 mm 4 mps 727 mmHg 93%
22:00 +19°C° 1.6 mm 4 mps 727 mmHg 93%
23:00 +19°C° 1.6 mm 4 mps 727 mmHg 92%

Day after tomorrow, 6 August, Friday

Time Temperature Precipitation Wind Pressure Humidity
00:00 +17°C° 0 mm 5 mps 727 mmHg 92%
01:00 +17°C° 0 mm 6 mps 727 mmHg 93%
02:00 +17°C° 0 mm 7 mps 727 mmHg 93%
03:00 +17°C° 0 mm 5 mps 727 mmHg 94%
04:00 +17°C° 0 mm 4 mps 727 mmHg 95%
05:00 +17°C° 0 mm 3 mps 727 mmHg 96%
06:00 +18°C° 0 mm 2 mps 727 mmHg 91%
07:00 +19°C° 0 mm 2 mps 727 mmHg 86%
08:00 +20°C° 0 mm 2 mps 727 mmHg 80%
09:00 +23°C° 0 mm 2 mps 727 mmHg 74%
10:00 +24°C° 0 mm 2 mps 728 mmHg 68%
11:00 +26°C° 0 mm 2 mps 728 mmHg 61%
12:00 +26°C° 0.2 mm 2 mps 728 mmHg 59%
13:00 +27°C° 0.2 mm 2 mps 728 mmHg 58%
14:00 +27°C° 0.2 mm 2 mps 728 mmHg 56%
15:00 +27°C° 0.2 mm 2 mps 727 mmHg 58%
16:00 +26°C° 0.2 mm 3 mps 727 mmHg 61%
17:00 +26°C° 0.2 mm 3 mps 727 mmHg 63%
18:00 +24°C° 0.2 mm 3 mps 728 mmHg 70%
19:00 +22°C° 0.2 mm 3 mps 728 mmHg 76%
20:00 +20°C° 0.2 mm 2 mps 728 mmHg 83%
21:00 +19°C° 0.5 mm 2 mps 728 mmHg 87%
22:00 +19°C° 0.5 mm 2 mps 729 mmHg 90%
23:00 +18°C° 0.5 mm 2 mps 729 mmHg 93%

7 August, Saturday

Time Temperature Precipitation Wind Pressure Humidity
00:00 +18°C° 0 mm 3 mps 729 mmHg 94%
01:00 +17°C° 0 mm 3 mps 729 mmHg 95%
02:00 +17°C° 0 mm 3 mps 729 mmHg 96%
03:00 +17°C° 0 mm 3 mps 730 mmHg 96%
04:00 +17°C° 0 mm 3 mps 730 mmHg 96%
05:00 +16°C° 0 mm 3 mps 730 mmHg 96%
06:00 +17°C° 0 mm 3 mps 730 mmHg 94%
07:00 +17°C° 0 mm 3 mps 731 mmHg 92%
08:00 +17°C° 0 mm 3 mps 731 mmHg 89%
09:00 +18°C° 0 mm 3 mps 731 mmHg 85%
10:00 +18°C° 0 mm 4 mps 732 mmHg 81%
11:00 +19°C° 0 mm 4 mps 732 mmHg 76%
12:00 +20°C° 0.1 mm 4 mps 732 mmHg 71%
13:00 +21°C° 0.1 mm 4 mps 732 mmHg 66%
14:00 +22°C° 0.1 mm 4 mps 732 mmHg 61%
15:00 +22°C° 0 mm 4 mps 732 mmHg 61%
16:00 +22°C° 0 mm 4 mps 732 mmHg 61%
17:00 +22°C° 0 mm 3 mps 733 mmHg 61%
18:00 +21°C° 0 mm 3 mps 733 mmHg 65%
19:00 +20°C° 0 mm 2 mps 733 mmHg 70%
20:00 +20°C° 0 mm 1 mps 733 mmHg 74%
21:00 +19°C° 0 mm 1 mps 733 mmHg 77%
22:00 +18°C° 0 mm 1 mps 734 mmHg 81%
23:00 +16°C° 0 mm 1 mps 734 mmHg 85%

8 August, Sunday

Time Temperature Precipitation Wind Pressure Humidity
00:00 +16°C° 0 mm 1 mps 734 mmHg 86%
01:00 +16°C° 0 mm 1 mps 734 mmHg 87%
02:00 +15°C° 0 mm 1 mps 734 mmHg 89%
03:00 +15°C° 0 mm 1 mps 734 mmHg 89%
04:00 +15°C° 0 mm 2 mps 734 mmHg 89%
05:00 +14°C° 0 mm 2 mps 735 mmHg 89%
06:00 +16°C° 0 mm 1 mps 735 mmHg 82%
07:00 +19°C° 0 mm 1 mps 735 mmHg 75%
08:00 +21°C° 0 mm 1 mps 735 mmHg 67%
09:00 +23°C° 0 mm 1 mps 735 mmHg 61%
10:00 +24°C° 0 mm 2 mps 735 mmHg 55%
11:00 +26°C° 0 mm 2 mps 736 mmHg 49%
12:00 +27°C° 0 mm 2 mps 736 mmHg 47%
13:00 +27°C° 0 mm 2 mps 736 mmHg 46%
14:00 +28°C° 0 mm 2 mps 736 mmHg 44%
15:00 +28°C° 0 mm 2 mps 736 mmHg 44%
16:00 +29°C° 0 mm 2 mps 736 mmHg 45%
17:00 +29°C° 0 mm 2 mps 736 mmHg 45%
18:00 +27°C° 0 mm 2 mps 736 mmHg 52%
19:00 +25°C° 0 mm 2 mps 736 mmHg 59%
20:00 +23°C° 0 mm 2 mps 736 mmHg 66%
21:00 +21°C° 0 mm 2 mps 736 mmHg 68%
22:00 +21°C° 0 mm 2 mps 737 mmHg 70%
23:00 +20°C° 0 mm 3 mps 737 mmHg 72%

9 August, Monday

Time Temperature Precipitation Wind Pressure Humidity
00:00 +20°C° 0 mm 3 mps 737 mmHg 72%
01:00 +19°C° 0 mm 3 mps 737 mmHg 73%
02:00 +19°C° 0 mm 3 mps 737 mmHg 73%
03:00 +19°C° 0 mm 3 mps 737 mmHg 73%
04:00 +18°C° 0 mm 3 mps 736 mmHg 74%
05:00 +18°C° 0 mm 3 mps 736 mmHg 75%
06:00 +20°C° 0 mm 3 mps 736 mmHg 70%
07:00 +21°C° 0 mm 4 mps 736 mmHg 66%
08:00 +23°C° 0 mm 4 mps 737 mmHg 61%
09:00 +26°C° 0 mm 5 mps 737 mmHg 58%
10:00 +27°C° 0 mm 5 mps 737 mmHg 55%
11:00 +28°C° 0 mm 6 mps 737 mmHg 51%
12:00 +28°C° 0 mm 5 mps 737 mmHg 53%
13:00 +28°C° 0 mm 5 mps 737 mmHg 54%
14:00 +28°C° 0 mm 4 mps 737 mmHg 55%
15:00 +27°C° 0 mm 4 mps 737 mmHg 58%
16:00 +27°C° 0 mm 4 mps 737 mmHg 60%
17:00 +27°C° 0 mm 4 mps 737 mmHg 62%
18:00 +25°C° 0.6 mm 3 mps 737 mmHg 72%
19:00 +22°C° 0.6 mm 3 mps 737 mmHg 82%
20:00 +20°C° 0.6 mm 3 mps 737 mmHg 91%
21:00 +20°C° 0.6 mm 3 mps 737 mmHg 93%
22:00 +19°C° 0.6 mm 3 mps 737 mmHg 94%
23:00 +18°C° 0.6 mm 2 mps 737 mmHg 95%
Show more